Location: Waning Moon II Observatory
(30.3730°N, 89.7620°W)
Time: 23:54:58
(UTC-05:00)

Daily predictions for brighter satellites

Satellite Brightness Start Highest point End
(mag) Time Altitude Azimuth Time Altitude Azimuth Time Altitude Azimuth
Atlas Centaur 2 3.7 18:57:06 10° W 19:05:19 57° SSW 19:13:29 10° SE
Meteor 1-28 Rocket 3.5 19:07:33 10° NNE 19:11:05 41° E 19:14:36 10° S
GPS 2-04 Rocket1 3.0 19:07:47 10° W 19:11:07 50° NNW 19:14:34 10° ENE
SEDSat Delta rocket 4.1 19:06:24 10° W 19:12:50 82° N 19:19:40 10° E
Cosmos 2278 Rocket 3.8 19:08:28 10° NW 19:13:40 39° WSW 19:18:52 10° S
COSMOS 2441 4.3 19:09:13 10° SSE 19:14:04 80° ENE 19:18:54 10° N
Cosmos 1805 3.4 19:15:11 10° S 19:19:00 52° E 19:22:50 10° NNE
Okean 3 Rocket 4.1 19:16:11 10° NNW 19:20:42 68° W 19:25:10 10° S
ALOS 4.0 19:20:15 10° E 19:22:11 13° ENE 19:24:18 10° NE
Cosmos 1452 Rocket 3.7 19:17:56 10° N 19:23:01 47° ENE 19:28:03 10° SE
Cosmos 2297 4.0 19:17:56 10° NNW 19:23:35 74° WSW 19:29:09 10° SSE
Cosmos 1943 3.8 19:20:21 10° SSE 19:25:23 34° ESE 19:30:24 10° NE
Resurs 01 Rocket 2.6 19:23:29 10° SE 19:27:10 26° ENE 19:30:51 10° NNE
CENTAUR R/B 2.5 19:21:51 10° S 19:27:28 52° ESE 19:33:41 10° NE
SL-19 R/B 4.3 19:22:44 10° SSE 19:28:18 72° ENE 19:34:10 10° N
Cosmos 2369 Rocket 3.8 19:26:17 10° NNE 19:29:19 14° ENE 19:31:02 13° ENE
Gbstr 26 Del rocket 3.1 19:25:42 10° SW 19:29:46 81° NW 19:34:41 10° NE
Cosmos 1603 3.9 19:26:49 10° SSW 19:32:32 77° WNW 19:38:18 10° NNE
Cosmos 1953 2.2 19:28:38 10° S 19:32:36 86° E 19:36:36 10° N
Helios 1B rocket 2.8 19:29:04 10° NNE 19:32:59 42° E 19:36:53 10° S
ISS -1.2 19:30:35 10° W 19:33:22 26° NW 19:36:10 10° NNE
Meteor 2-12 Rocket 4.4 19:28:08 10° S 19:34:13 68° E 19:40:19 10° NNE
Delta 168 3.7 19:31:41 10° WSW 19:35:31 46° S 19:39:37 16° ESE
Cosmos 1733 4.2 19:34:16 10° SE 19:37:25 24° E 19:40:35 10° NE
Cosmos 1470 3.2 19:40:55 10° SSE 19:44:31 38° E 19:48:08 10° NNE
BREEZE-M TANK 2.7 19:38:47 10° NW 19:46:34 89° SW 19:48:39 21° SE
In-Cosmos 22 4.2 19:42:24 10° N 19:48:12 88° E 19:53:53 10° S
ATLAS CENTAUR R/B 4.4 19:47:58 10° W 19:49:39 12° WSW 19:51:18 10° SW
Spot 2 Rocket 3.6 19:46:06 10° SSE 19:50:58 53° ENE 19:55:53 10° N
Cosmos 1674 3.5 19:47:32 10° NNE 19:50:59 29° E 19:51:28 28° E
Nadezhda 4 Rocket 4.1 19:44:57 10° N 19:51:03 53° E 19:57:02 10° SSE
Cosmos 1076 Rocket 4.3 19:49:34 10° NNW 19:53:49 54° W 19:58:04 10° S
BREEZE-M DEB (TANK) 4.3 19:33:41 10° NW 19:54:32 80° NE 19:58:17 21° SE
Cosmos 1048 Rocket 4.1 19:49:50 10° SSW 19:55:08 78° WNW 20:00:25 10° NNE
ASTRO E2 2.8 19:51:17 10° W 19:55:18 66° SSW 19:57:04 31° ESE
Cosmos-2242 3.9 19:53:30 10° SSW 19:57:45 53° W 20:02:03 10° N
Cosmos 1766 Rocket 4.1 19:55:07 10° NNW 19:59:24 58° W 20:03:37 10° S
SJ-6B 3.5 19:56:44 10° S 20:00:37 56° W 20:04:36 10° NNW
Cosmos 1092 Rocket 4.2 19:55:09 10° N 20:01:02 45° E 20:06:51 10° SSE
HJ-1C 3.2 19:58:45 16° SSE 20:01:18 73° E 20:04:40 10° N
FREGAT/IRIS 3.3 19:59:37 10° S 20:02:38 56° W 20:05:41 10° NNW
Cosmos 1544 4.2 20:02:18 10° SSW 20:05:54 47° W 20:09:31 10° N
Cosmos 158 Rocket 3.7 20:02:09 10° S 20:07:01 78° ESE 20:11:54 10° NNE
Cosmos 1174 4.5 20:01:50 10° SSW 20:07:01 67° WNW 20:11:08 10° NNE
Meteor 1-16 Rocket 4.5 20:03:22 10° SSE 20:08:13 37° E 20:13:05 10° NNE
Milstar 3 4.4 19:58:26 10° W 20:08:21 77° S 20:20:49 26° ESE
Cosmos 1346 3.2 20:05:57 10° NNW 20:08:54 71° W 20:09:56 36° S
Cosmos 1634 Rocket 4.0 20:04:53 10° SSE 20:10:57 57° E 20:17:01 10° NNE
FengYun 1-2 T 4.1 20:05:41 10° SSE 20:11:08 66° ENE 20:16:34 10° N
METEOR-M 4.3 20:10:24 10° S 20:15:43 73° WSW 20:21:05 10° NNW
USA 215 3.6 20:11:55 10° NE 20:18:21 63° NW 20:24:46 10° SW
OAO 3 Rocket 3.1 20:19:14 10° WNW 20:23:58 69° NNE 20:24:38 59° ENE
Cosmos 1842 Rocket 4.2 20:22:24 10° SSW 20:26:37 54° W 20:30:53 10° N
SeaSat 1 3.8 20:33:03 25° S 20:33:03 25° S 20:35:08 10° S
Cosmos 1500 Rocket 3.6 20:27:03 10° N 20:31:30 81° W 20:32:52 44° S
Helios 1A 3.7 20:30:32 16° S 20:33:46 52° W 20:37:53 10° NNW
FENGYUN 3A 3.5 20:32:29 42° SSE 20:34:23 81° ENE 20:39:47 10° N
ALOS 3.1 20:58:47 46° WSW 20:59:09 47° W 21:03:39 10° NNW
SEDSat Delta rocket 4.0 20:52:59 10° W 20:59:39 67° SSW 20:59:50 67° S
Resurs 01 Rocket 4.1 21:00:13 10° SW 21:03:32 21° W 21:06:53 10° NW
Cosmos 1627 Rocket 4.4 20:58:04 10° N 21:04:19 83° W 21:04:23 83° WSW
Cosmos 2251 Rocket 4.3 20:59:46 10° SSW 21:04:48 49° WNW 21:09:53 10° N
Cosmos 1943 Rocket 3.9 21:00:41 10° N 21:02:44 22° N 21:02:44 22° N
Meteosat 1 Rocket2 4.3 21:04:18 10° W 21:09:24 49° WSW 21:09:24 49° WSW
Cosmos 2369 Rocket 2.7 21:08:08 10° NNW 21:12:52 56° WNW 21:12:52 56° WNW
BREEZE-M DEB (TANK) 4.2 20:56:45 10° NW 21:16:47 61° WSW 21:17:48 55° SSW
Cosmos 839 Rocket 4.3 21:14:03 10° NNW 21:20:01 65° NW 21:20:01 65° NW
